Change the Weather History Date:

Saturday, April 21, 2012

  Actual Average Record
Temperature  
Mean Temperature 48 °F 43 °F  
Max Temperature 60 °F 55 °F 82 °F (1906)
Min Temperature 36 °F 30 °F 0 °F (2008)
Degree Days  
Heating Degree Days 17 22  
Month to date heating degree days 509 521  
Since 1 July heating degree days 6604 7320  
Cooling Degree Days 0 0  
Month to date cooling degree days 0 0  
Year to date cooling degree days 0 0  
Moisture  
Dew Point 31 °F    
Average Humidity 54    
Maximum Humidity 79    
Minimum Humidity 28    
Precipitation  
Precipitation 0.00 in 0.05 in 0.70 in (1904)
Month to date precipitation 1.67 0.91  
Year to date precipitation 3.62 2.91  
Snow  
Snow 0.00 in - - ()
Snow Depth 0.00 in    
Sea Level Pressure  
Sea Level Pressure 30.13 in    
Wind  
Wind Speed 6 mph (West)    
Max Wind Speed 14 mph    
Max Gust Speed 17 mph    
Visibility 10 miles    
Events      
T = Trace of Precipitation, MM = Missing Value Source: NWS Daily Summary

Daily Weather History Graph

Daily Weather History Graph

Search for Another Location

Airport or City:

Trip Planner

Search our weather history database for the weather conditions in past years. The results will help you decide how hot, cold, wet, or windy it might be!

Date:

Astronomy

Apr. 21, 2012 Rise Set
Actual Time 6:18 AM MDT 8:15 PM MDT
Civil Twilight 5:45 AM MDT 8:48 PM MDT
Nautical Twilight 5:05 AM MDT 9:28 PM MDT
Astronomical Twilight 4:20 AM MDT 10:13 PM MDT
Moon 6:12 AM MDT (4/21) 9:05 PM MDT (4/21)
Length of Visible Light 15h 03m
Length of Day
13h 57m
New Moon, 0% of the Moon is Illuminated
Apr 21
New Moon
Apr 29
First Quarter
May 5
Full
May 12
Last Quarter
May 20
New

Hourly Weather History & Observations

Time (MDT) Temp. Windchill Dew Point Humidity Pressure Visibility Wind Dir Wind Speed Gust Speed Precip Events Conditions
12:54 AM 46.0 °F 41.0 °F 34.0 °F 63% 30.01 in 10.0 mi WNW 10.4 mph - N/A   Scattered Clouds
1:54 AM 45.0 °F 40.1 °F 34.0 °F 65% 30.03 in 10.0 mi WNW 9.2 mph - N/A   Overcast
2:54 AM 41.0 °F 35.8 °F 35.1 °F 79% 30.04 in 10.0 mi West 8.1 mph - N/A   Overcast
3:54 AM 42.1 °F 37.1 °F 35.1 °F 76% 30.06 in 10.0 mi WSW 8.1 mph - N/A   Overcast
4:54 AM 44.1 °F 37.4 °F 35.1 °F 71% 30.07 in 10.0 mi West 13.8 mph - N/A   Overcast
5:54 AM 39.0 °F 34.8 °F 32.0 °F 76% 30.10 in 10.0 mi West 5.8 mph - N/A   Clear
7:54 AM 43.0 °F 41.3 °F 30.9 °F 62% 30.15 in 10.0 mi WSW 3.5 mph - N/A   Mostly Cloudy
9:54 AM 48.0 °F - 28.9 °F 48% 30.17 in 10.0 mi West 4.6 mph - N/A   Overcast
10:54 AM 50.0 °F - 27.0 °F 41% 30.18 in 10.0 mi WNW 4.6 mph - N/A   Clear
11:54 AM 53.1 °F - 21.9 °F 30% 30.18 in 10.0 mi WNW 8.1 mph - N/A   Clear
12:54 PM 54.0 °F - 24.1 °F 31% 30.17 in 10.0 mi Variable 5.8 mph - N/A   Mostly Cloudy
1:54 PM 54.0 °F - 25.0 °F 33% 30.17 in 10.0 mi South 4.6 mph - N/A   Scattered Clouds
2:54 PM 55.0 °F - 26.1 °F 33% 30.17 in 10.0 mi WSW 4.6 mph - N/A   Scattered Clouds
3:54 PM 57.9 °F - 28.0 °F 32% 30.15 in 10.0 mi WSW 6.9 mph - N/A   Clear
4:54 PM 59.0 °F - 30.0 °F 33% 30.13 in 10.0 mi WNW 10.4 mph 16.1 mph N/A   Overcast
5:54 PM 57.0 °F - 30.0 °F 36% 30.15 in 10.0 mi North 4.6 mph - N/A   Mostly Cloudy
6:54 PM 55.9 °F - 32.0 °F 40% 30.15 in 10.0 mi North 3.5 mph - N/A   Overcast
7:54 PM 55.0 °F - 30.9 °F 40% 30.14 in 10.0 mi Calm Calm - N/A   Clear
8:54 PM 50.0 °F - 32.0 °F 50% 30.16 in 10.0 mi Calm Calm - N/A   Clear
9:54 PM 45.0 °F 41.8 °F 34.0 °F 65% 30.19 in 10.0 mi ESE 5.8 mph - N/A   Clear
10:54 PM 43.0 °F 39.5 °F 33.1 °F 68% 30.18 in 10.0 mi ESE 5.8 mph - N/A   Clear
11:54 PM 42.1 °F 36.6 °F 32.0 °F 67% 30.18 in 10.0 mi SE 9.2 mph - N/A   Clear